Regional Weather Roundup
Issued by NWS Little Rock, AR

Home | Current Version | Previous Version | Text Only | Print | Product List | Glossary Off
Versions: 1 2 3 4 5 6 7 8 9 10 11 12 13 14 15 16 17 18 19 20 21 22 23 24 25 26 27 28 29 30 31 32 33 34 35 36 37 38 39 40 41 42 43 44 45 46 47 48 49 50

000
ASUS44 KLZK 021205
RWRLZK

WEATHER ROUNDUP FOR ARKANSAS
NATIONAL WEATHER SERVICE LITTLE ROCK AR
700 AM CDT THU JUL 02 2015

NOTE: "FAIR" INDICATES FEW OR NO CLOUDS BELOW 12,000 FEET WITH NO
SIGNIFICANT WEATHER AND/OR OBSTRUCTIONS TO VISIBILITY.

ARZ001-003-010-029-021300-
NORTHWEST ARKANSAS

CITY           SKY/WX    TMP DP  RH WIND       PRES   REMARKS
FAYETTEVILLE   PTCLDY    76  69  79 SW16G24   29.88R
6HR MIN TEMP:  75; 6HR MAX TEMP:  78;

FORT SMITH     MOCLDY    79  66  64 W9        29.89R
6HR MIN TEMP:  78; 6HR MAX TEMP:  83;

HARRISON       CLOUDY    68  68 100 S14       29.91F
6HR MIN TEMP:  67; 6HR MAX TEMP:  80; 6HR PCP:  1.54;

BENTONVILLE    PTCLDY    77  68  73 SW10      29.87S
6HR MIN TEMP:  75; 6HR MAX TEMP:  79;

ROGERS         CLOUDY    77  70  79 SW15      29.87S
6HR MIN TEMP:  75; 6HR MAX TEMP:  79; 6HR PCP:  0.07;

SILOAM SPGS    PTCLDY    75  66  73 SW12        N/A
6HR MIN TEMP:  75; 6HR MAX TEMP:  81;

HIGHFILL       PTCLDY    77  71  82 SW10      29.86S
6HR MIN TEMP:  77; 6HR MAX TEMP:  80;

SPRINGDALE     MOCLDY    77  70  78 SW13      29.90R
$$

ARZ004-005-016-021300-
NORTH CENTRAL ARKANSAS

CITY           SKY/WX    TMP DP  RH WIND       PRES   REMARKS
BATESVILLE     CLOUDY    72  70  94 N7        29.92R
6HR MIN TEMP:  72; 6HR MAX TEMP:  81; 6HR PCP:  0.38;

FLIPPIN        CLOUDY    70  66  88 S6        29.90R THUNDER
6HR MIN TEMP:  70; 6HR MAX TEMP:  81; 6HR PCP:  1.26;

MTN HOME       TSTM      69  68  96 SW9       29.91R FOG
6HR MIN TEMP:  68; 6HR MAX TEMP:  78;

$$

ARZ040-041-021300-
WEST CENTRAL ARKANSAS

CITY           SKY/WX    TMP DP  RH WIND       PRES   REMARKS
MENA           MOCLDY    77  70  78 SW9       29.95R
MOUNT IDA      CLOUDY    77  67  71 VRB3      29.91R
6HR MIN TEMP:  77; 6HR MAX TEMP:  82;

$$

ARZ009-017-025-026-028-021300-
NORTHEAST ARKANSAS

CITY           SKY/WX    TMP DP  RH WIND       PRES   REMARKS
JONESBORO      LGT RAIN  76  74  93 SW6       29.88F
6HR MIN TEMP:  76; 6HR MAX TEMP:  80; 6HR PCP:  0.11;

NEWPORT        CLOUDY    77  76  96 SW6       29.91S THUNDER
6HR MIN TEMP:  76; 6HR MAX TEMP:  82; 6HR PCP:  0.14;

WALNUT RIDGE   CLOUDY    73  70  88 SW15      29.84F
6HR MIN TEMP:  73; 6HR MAX TEMP:  81; 6HR PCP:  0.62;

BLYTHEVILLE    LGT RAIN  77  76  96 SW9       29.88S
6HR MIN TEMP:  77; 6HR MAX TEMP:  81; 6HR PCP:  0.03;

$$

ARZ022-023-033-042-044-021300-
CENTRAL ARKANSAS

CITY           SKY/WX    TMP DP  RH WIND       PRES   REMARKS
LITTLE ROCK    CLOUDY    77  67  71 SW8       29.91R
6HR MIN TEMP:  77; 6HR MAX TEMP:  81; 6HR PCP: TRACE;

N LITTLE ROCK    N/A     77  71  83 SW8       29.91R
6HR MIN TEMP:  76; 6HR MAX TEMP:  80;

JACKSONVILLE   CLOUDY    77  70  79 S6        29.91R
6HR MIN TEMP:  77; 6HR MAX TEMP:  82;

SEARCY         LGT RAIN  76  73  91 S6        29.92R
6HR MIN TEMP:  75; 6HR MAX TEMP:  79; 6HR PCP: TRACE;

HOT SPRINGS    CLOUDY    76  67  73 W10       29.94R
6HR MIN TEMP:  76; 6HR MAX TEMP:  81; 6HR PCP: TRACE;

RUSSELLVILLE   CLOUDY    78  69  73 SE5       29.89R
6HR MIN TEMP:  77; 6HR MAX TEMP:  81;

CLINTON        FAIR      73  73 100 CALM      29.94R
$$

ARZ036-021300-
EAST ARKANSAS

CITY           SKY/WX    TMP DP  RH WIND       PRES   REMARKS
WEST MEMPHIS   CLOUDY    77  72  84 SW7       29.90S
6HR MIN TEMP:  77; 6HR MAX TEMP:  81; 6HR PCP: TRACE;

$$

ARZ050-053-066-070-073-021300-
SOUTHWEST ARKANSAS

CITY           SKY/WX    TMP DP  RH WIND       PRES   REMARKS
ARKADELPHIA    FAIR      75  69  81 SW7       29.95R
6HR MIN TEMP:  75; 6HR MAX TEMP:  80;

TEXARKANA      MOCLDY    76  66  71 SW16G22   29.96R
6HR MIN TEMP:  74; 6HR MAX TEMP:  78;

EL DORADO      CLOUDY    73  67  81 SW8       29.98R
6HR MIN TEMP:  73; 6HR MAX TEMP:  76;

DE QUEEN       CLOUDY    73  69  87 W5        29.93R
6HR MIN TEMP:  72; 6HR MAX TEMP:  77;

$$

ARZ056-057-069-021300-
SOUTHEAST ARKANSAS

CITY           SKY/WX    TMP DP  RH WIND       PRES   REMARKS
PINE BLUFF     CLOUDY    76  68  76 SW12      29.94R
6HR MIN TEMP:  75; 6HR MAX TEMP:  79;

STUTTGART      CLOUDY    75  68  78 SW9       29.92S
6HR MIN TEMP:  75; 6HR MAX TEMP:  81;

MONTICELLO     CLOUDY    76  70  82 SW9       29.96R
6HR MIN TEMP:  75; 6HR MAX TEMP:  79;


$$





USA.gov is the U.S. government's official web portal to all federal, state and local government web resources and services.